,,PA_Meas_PMT16A,,PR_Meas_QMR101_102,,RH_Meas_QMH101,,SR_Meas_QMS101,,TA_Meas_QMH101,,GenWind,,GenWind,
time,status,PA,status,PR,status,RH,status,SR,status,TA,status,DirAvg,status,SpdAvg,
2013-02-01, 00:00:05,VALID,919.703,VALID,0,VALID,96.0169,VALID,0,VALID,20.4244,VALID,160,VALID,0,
2013-02-01, 00:01:05,VALID,919.686,VALID,0,VALID,95.9941,VALID,0,VALID,20.4049,VALID,160,VALID,0,
2013-02-01, 00:02:05,VALID,919.658,VALID,0,VALID,95.9407,VALID,0,VALID,20.4244,VALID,160,VALID,0,
2013-02-01, 00:03:05,VALID,919.64,VALID,0,VALID,95.9178,VALID,0,VALID,20.4259,VALID,160,VALID,0,
2013-02-01, 00:04:05,VALID,919.633,VALID,0,VALID,95.8568,VALID,0,VALID,20.447,VALID,160,VALID,0,
2013-02-01, 00:05:05,VALID,919.645,VALID,0,VALID,95.7882,VALID,0,VALID,20.4064,VALID,160,VALID,0,
2013-02-01, 00:06:05,VALID,919.616,VALID,0,VALID,95.7349,VALID,0,VALID,20.4064,VALID,160,VALID,0,
2013-02-01, 00:07:05,VALID,919.668,VALID,0,VALID,95.5671,VALID,0,VALID,20.3674,VALID,160,VALID,0,
2013-02-01, 00:08:05,VALID,919.639,VALID,0,VALID,95.5595,VALID,0,VALID,20.3284,VALID,160,VALID,0,
2013-02-01, 00:09:05,VALID,919.632,VALID,0,VALID,95.3918,VALID,0,VALID,20.2909,VALID,160,VALID,0,
2013-02-01, 00:10:05,VALID,919.6,VALID,0,VALID,95.4909,VALID,0,VALID,20.2714,VALID,160,VALID,0,
2013-02-01, 00:11:05,VALID,919.605,VALID,0,VALID,95.5671,VALID,0,VALID,20.2504,VALID,160,VALID,0,
2013-02-01, 00:12:05,VALID,919.551,VALID,0,VALID,95.5595,VALID,0,VALID,20.1919,VALID,160,VALID,0,
2013-02-01, 00:13:05,VALID,919.535,VALID,0,VALID,95.6739,VALID,0,VALID,20.1934,VALID,33,VALID,0,
2013-02-01, 00:14:05,VALID,919.515,VALID,0,VALID,95.7272,VALID,0,VALID,20.1349,VALID,30,VALID,0,
2013-02-01, 00:15:05,VALID,919.505,VALID,0,VALID,95.8111,VALID,0,VALID,20.1154,VALID,31,VALID,0,
2013-02-01, 00:16:05,VALID,919.481,VALID,0,VALID,95.9407,VALID,0,VALID,20.0764,VALID,30,VALID,0,
2013-02-01, 00:17:05,VALID,919.481,VALID,0,VALID,96.0093,VALID,0,VALID,20.0569,VALID,30,VALID,0,
2013-02-01, 00:18:05,VALID,919.5,VALID,0,VALID,96.0627,VALID,0,VALID,19.9984,VALID,30,VALID,0,
2013-02-01, 00:19:05,VALID,919.46,VALID,0,VALID,96.1465,VALID,0,VALID,19.9773,VALID,31,VALID,0,
2013-02-01, 00:20:05,VALID,919.475,VALID,0,VALID,96.177,VALID,0,VALID,19.9578,VALID,31,VALID,0,
2013-02-01, 00:21:05,VALID,919.445,VALID,0,VALID,96.2228,VALID,0,VALID,19.9593,VALID,30,VALID,0,
2013-02-01, 00:22:05,VALID,919.422,VALID,0,VALID,96.2533,VALID,0,VALID,19.9188,VALID,31,VALID,0,
2013-02-01, 00:23:05,VALID,919.392,VALID,0,VALID,96.2914,VALID,0,VALID,19.9203,VALID,58,VALID,0,
2013-02-01, 00:24:05,VALID,919.349,VALID,0,VALID,96.3371,VALID,0,VALID,19.9008,VALID,108,VALID,0,
2013-02-01, 00:25:05,VALID,919.333,VALID,0,VALID,96.4438,VALID,0,VALID,19.9188,VALID,89,VALID,0,
2013-02-01, 00:26:05,VALID,919.344,VALID,0,VALID,96.5201,VALID,0,VALID,19.9188,VALID,97,VALID,0,
2013-02-01, 00:27:05,VALID,919.336,VALID,0,VALID,96.5201,VALID,0,VALID,19.9398,VALID,93,VALID,0,
2013-02-01, 00:28:05,VALID,919.318,VALID,0,VALID,96.5277,VALID,0,VALID,19.9203,VALID,83,VALID,0,
2013-02-01, 00:29:05,VALID,919.324,VALID,0,VALID,96.5811,VALID,0,VALID,19.9188,VALID,85,VALID,0,
2013-02-01, 00:30:05,VALID,919.286,VALID,0,VALID,96.5963,VALID,0,VALID,19.9383,VALID,107,VALID,0,
2013-02-01, 00:31:05,VALID,919.264,VALID,0,VALID,96.6344,VALID,0,VALID,19.9593,VALID,110,VALID,0,
2013-02-01, 00:32:05,VALID,919.259,VALID,0,VALID,96.6573,VALID,0,VALID,19.9788,VALID,108,VALID,0,
2013-02-01, 00:33:05,VALID,919.255,VALID,0,VALID,96.6573,VALID,0,VALID,19.9788,VALID,90,VALID,0,
2013-02-01, 00:34:05,VALID,919.215,VALID,0,VALID,96.6878,VALID,0,VALID,19.9773,VALID,134,VALID,0,
2013-02-01, 00:35:05,VALID,919.211,VALID,0,VALID,96.6878,VALID,0,VALID,20.0179,VALID,112,VALID,0,
2013-02-01, 00:36:05,VALID,919.202,VALID,0,VALID,96.6878,VALID,0,VALID,19.9788,VALID,108,VALID,0,
2013-02-01, 00:37:05,VALID,919.176,VALID,0,VALID,96.703,VALID,0,VALID,19.9788,VALID,125,VALID,0,
2013-02-01, 00:38:05,VALID,919.179,VALID,0,VALID,96.6954,VALID,0,VALID,19.9398,VALID,125,VALID,0,
2013-02-01, 00:39:05,VALID,919.18,VALID,0,VALID,96.7107,VALID,0,VALID,19.9398,VALID,125,VALID,0,
2013-02-01, 00:40:05,VALID,919.162,VALID,0,VALID,96.7335,VALID,0,VALID,19.9203,VALID,125,VALID,0,
2013-02-01, 00:41:05,VALID,919.178,VALID,0,VALID,96.6878,VALID,0,VALID,19.9203,VALID,125,VALID,0,
2013-02-01, 00:42:05,VALID,919.158,VALID,0,VALID,96.7335,VALID,0,VALID,19.9398,VALID,134,VALID,0,
2013-02-01, 00:43:05,VALID,919.143,VALID,0,VALID,96.7259,VALID,0,VALID,19.9398,VALID,143,VALID,0,
2013-02-01, 00:44:05,VALID,919.108,VALID,0,VALID,96.7716,VALID,0,VALID,19.9203,VALID,142,VALID,0,
2013-02-01, 00:45:05,VALID,919.134,VALID,0,VALID,96.764,VALID,0,VALID,19.9398,VALID,150,VALID,0,
2013-02-01, 00:46:05,VALID,919.131,VALID,0,VALID,96.7869,VALID,0,VALID,19.9593,VALID,147,VALID,0,
2013-02-01, 00:47:05,VALID,919.097,VALID,0,VALID,96.764,VALID,0,VALID,19.9788,VALID,127,VALID,0,
2013-02-01, 00:48:05,VALID,919.078,VALID,0,VALID,96.8021,VALID,0,VALID,20.0163,VALID,144,VALID,0,
2013-02-01, 00:49:05,VALID,919.084,VALID,0,VALID,96.7945,VALID,0,VALID,19.9968,VALID,120,VALID,0,
2013-02-01, 00:50:05,VALID,919.06,VALID,0,VALID,96.8021,VALID,0,VALID,20.0163,VALID,119,VALID,0,
2013-02-01, 00:51:05,VALID,919.062,VALID,0,VALID,96.8021,VALID,0,VALID,20.0163,VALID,134,VALID,0,
2013-02-01, 00:52:05,VALID,919.062,VALID,0,VALID,96.7793,VALID,0,VALID,20.0163,VALID,142,VALID,0,
2013-02-01, 00:53:05,VALID,919.061,VALID,0,VALID,96.7869,VALID,0,VALID,20.0358,VALID,119,VALID,0,
2013-02-01, 00:54:05,VALID,919.069,VALID,0,VALID,96.7793,VALID,0,VALID,20.0358,VALID,166,VALID,0,
2013-02-01, 00:55:05,VALID,919.058,VALID,0,VALID,96.7793,VALID,0,VALID,20.0358,VALID,123,VALID,0,
2013-02-01, 00:56:05,VALID,919.051,VALID,0,VALID,96.7564,VALID,0,VALID,20.0553,VALID,129,VALID,0,
2013-02-01, 00:57:05,VALID,919.047,VALID,0,VALID,96.7335,VALID,0,VALID,20.0358,VALID,150,VALID,0,
2013-02-01, 00:58:05,VALID,919.051,VALID,0,VALID,96.7259,VALID,0,VALID,20.0553,VALID,160,VALID,0,
2013-02-01, 00:59:05,VALID,919.007,VALID,0,VALID,96.7335,VALID,0,VALID,20.0553,VALID,149,VALID,0,
2013-02-01, 01:00:05,VALID,919.026,VALID,0,VALID,96.7107,VALID,0,VALID,20.0553,VALID,143,VALID,0,
2013-02-01, 01:01:05,VALID,919.025,VALID,0,VALID,96.6649,VALID,0,VALID,20.0553,VALID,143,VALID,0,
2013-02-01, 01:02:05,VALID,919.008,VALID,0,VALID,96.6497,VALID,0,VALID,20.0733,VALID,140,VALID,0,
2013-02-01, 01:03:05,VALID,919.017,VALID,0,VALID,96.6344,VALID,0,VALID,20.0538,VALID,145,VALID,0,
2013-02-01, 01:04:05,VALID,919.027,VALID,0,VALID,96.5811,VALID,0.107441,VALID,20.0553,VALID,156,VALID,0,
2013-02-01, 01:05:05,VALID,919.056,VALID,0,VALID,96.5582,VALID,0,VALID,20.0553,VALID,170,VALID,0,
2013-02-01, 01:06:05,VALID,919.058,VALID,0,VALID,96.5353,VALID,0,VALID,20.0553,VALID,160,VALID,0,
2013-02-01, 01:07:05,VALID,919.009,VALID,0,VALID,96.5124,VALID,0,VALID,20.0553,VALID,159,VALID,0,
2013-02-01, 01:08:05,VALID,919.019,VALID,0,VALID,96.5048,VALID,0,VALID,20.0553,VALID,165,VALID,0,
2013-02-01, 01:09:05,VALID,919.025,VALID,0,VALID,96.4896,VALID,0,VALID,20.0343,VALID,165,VALID,0,
2013-02-01, 01:10:05,VALID,919.042,VALID,0,VALID,96.4591,VALID,0,VALID,20.0358,VALID,165,VALID,0,
2013-02-01, 01:11:05,VALID,919.029,VALID,0,VALID,96.4515,VALID,0,VALID,20.0358,VALID,165,VALID,0,
2013-02-01, 01:12:05,VALID,919.021,VALID,0,VALID,96.421,VALID,0,VALID,20.0163,VALID,165,VALID,0,
2013-02-01, 01:13:05,VALID,918.992,VALID,0,VALID,96.3981,VALID,0,VALID,19.9953,VALID,165,VALID,0,
2013-02-01, 01:14:05,VALID,918.998,VALID,0,VALID,96.36,VALID,0,VALID,20.0163,VALID,165,VALID,0,
2013-02-01, 01:15:05,VALID,919.009,VALID,0,VALID,96.36,VALID,0,VALID,19.9773,VALID,165,VALID,0,
2013-02-01, 01:16:05,VALID,919.02,VALID,0,VALID,96.3219,VALID,0,VALID,19.9578,VALID,165,VALID,0,
2013-02-01, 01:17:05,VALID,919,VALID,0,VALID,96.3066,VALID,0,VALID,19.9578,VALID,165,VALID,0,
2013-02-01, 01:18:05,VALID,918.999,VALID,0,VALID,96.3142,VALID,0,VALID,19.9788,VALID,165,VALID,0,
2013-02-01, 01:19:05,VALID,918.991,VALID,0,VALID,96.3371,VALID,0,VALID,19.9788,VALID,165,VALID,0,
2013-02-01, 01:20:05,VALID,918.999,VALID,0,VALID,96.3371,VALID,0,VALID,19.9984,VALID,206,VALID,0,
2013-02-01, 01:21:05,VALID,918.975,VALID,0,VALID,96.3371,VALID,0,VALID,19.9984,VALID,200,VALID,0,
2013-02-01, 01:22:05,VALID,918.997,VALID,0,VALID,96.3752,VALID,0,VALID,20.0163,VALID,173,VALID,0,
2013-02-01, 01:23:05,VALID,918.965,VALID,0,VALID,96.3447,VALID,0,VALID,20.0374,VALID,157,VALID,0,
2013-02-01, 01:24:05,VALID,918.981,VALID,0,VALID,96.2914,VALID,0,VALID,19.9984,VALID,157,VALID,0,
2013-02-01, 01:25:05,VALID,918.976,VALID,0,VALID,96.2533,VALID,0,VALID,19.9968,VALID,173,VALID,0,
2013-02-01, 01:26:05,VALID,918.964,VALID,0,VALID,96.238,VALID,0,VALID,20.0179,VALID,172,VALID,0,
2013-02-01, 01:27:05,VALID,918.952,VALID,0,VALID,96.2151,VALID,0,VALID,20.0163,VALID,158,VALID,0,
2013-02-01, 01:28:05,VALID,918.961,VALID,0,VALID,96.177,VALID,0,VALID,19.9968,VALID,158,VALID,0,
2013-02-01, 01:29:05,VALID,918.914,VALID,0,VALID,96.116,VALID,0,VALID,19.9984,VALID,155,VALID,0,
2013-02-01, 01:30:05,VALID,918.864,VALID,0,VALID,96.1236,VALID,0,VALID,19.9984,VALID,121,VALID,0,
2013-02-01, 01:31:05,VALID,918.846,VALID,0,VALID,96.0855,VALID,0,VALID,19.9984,VALID,128,VALID,0,
2013-02-01, 01:32:05,VALID,918.81,VALID,0,VALID,95.9788,VALID,0,VALID,19.9593,VALID,128,VALID,0,
2013-02-01, 01:33:05,VALID,918.762,VALID,0,VALID,95.9331,VALID,0,VALID,19.9383,VALID,118,VALID,0,
2013-02-01, 01:34:05,VALID,918.764,VALID,0,VALID,96.0703,VALID,0,VALID,19.9578,VALID,124,VALID,0,
2013-02-01, 01:35:05,VALID,918.735,VALID,0,VALID,95.9331,VALID,0,VALID,19.9383,VALID,124,VALID,0,
2013-02-01, 01:36:05,VALID,918.735,VALID,0,VALID,95.9483,VALID,0,VALID,19.9188,VALID,124,VALID,0,
2013-02-01, 01:37:05,VALID,918.709,VALID,0,VALID,95.9331,VALID,0,VALID,19.8993,VALID,124,VALID,0,
2013-02-01, 01:38:05,VALID,918.72,VALID,0,VALID,95.9864,VALID,0,VALID,19.8978,VALID,124,VALID,0,
2013-02-01, 01:39:05,VALID,918.708,VALID,0,VALID,96.0093,VALID,0,VALID,19.9188,VALID,95,VALID,0,
2013-02-01, 01:40:05,VALID,918.715,VALID,0,VALID,95.9788,VALID,0,VALID,19.9578,VALID,102,VALID,0,
2013-02-01, 01:41:05,VALID,918.706,VALID,0,VALID,95.834,VALID,0,VALID,19.9773,VALID,101,VALID,0,
2013-02-01, 01:42:05,VALID,918.717,VALID,0,VALID,95.834,VALID,0,VALID,20.0148,VALID,104,VALID,0,
2013-02-01, 01:43:05,VALID,918.705,VALID,0,VALID,95.6891,VALID,0,VALID,20.0553,VALID,130,VALID,0,
2013-02-01, 01:44:05,VALID,918.716,VALID,0,VALID,95.6281,VALID,0,VALID,20.0538,VALID,122,VALID,0,
2013-02-01, 01:45:05,VALID,918.696,VALID,0,VALID,95.529,VALID,0,VALID,20.0553,VALID,130,VALID,0,
2013-02-01, 01:46:05,VALID,918.694,VALID,0,VALID,95.4299,VALID,0.107441,VALID,20.0553,VALID,100,VALID,0,
2013-02-01, 01:47:05,VALID,918.703,VALID,0,VALID,95.3918,VALID,0,VALID,20.0148,VALID,109,VALID,0,
2013-02-01, 01:48:05,VALID,918.705,VALID,0,VALID,95.3994,VALID,0.107441,VALID,20.0358,VALID,120,VALID,0,
2013-02-01, 01:49:05,VALID,918.727,VALID,0,VALID,95.3689,VALID,0,VALID,19.9968,VALID,134,VALID,0,
2013-02-01, 01:50:05,VALID,918.712,VALID,0,VALID,95.3384,VALID,0.107441,VALID,19.9773,VALID,134,VALID,0,
2013-02-01, 01:51:05,VALID,918.706,VALID,0,VALID,95.3156,VALID,0,VALID,19.9383,VALID,134,VALID,0,
2013-02-01, 01:52:05,VALID,918.708,VALID,0,VALID,95.3308,VALID,0,VALID,19.8993,VALID,134,VALID,0,
2013-02-01, 01:53:05,VALID,918.744,VALID,0,VALID,95.3537,VALID,0,VALID,19.8798,VALID,134,VALID,0,
2013-02-01, 01:54:05,VALID,918.702,VALID,0,VALID,95.4452,VALID,0,VALID,19.8603,VALID,134,VALID,0,
2013-02-01, 01:55:05,VALID,918.693,VALID,0,VALID,95.5062,VALID,0,VALID,19.8213,VALID,134,VALID,0,
2013-02-01, 01:56:05,VALID,918.695,VALID,0,VALID,95.5214,VALID,0,VALID,19.7823,VALID,134,VALID,0,
2013-02-01, 01:57:05,VALID,918.695,VALID,0,VALID,95.5976,VALID,0,VALID,19.7628,VALID,134,VALID,0,
2013-02-01, 01:58:05,VALID,918.656,VALID,0,VALID,95.6586,VALID,0,VALID,19.7433,VALID,134,VALID,0,
2013-02-01, 01:59:05,VALID,918.675,VALID,0,VALID,95.7044,VALID,0,VALID,19.7223,VALID,134,VALID,0,
2013-02-01, 02:00:05,VALID,918.673,VALID,0,VALID,95.8263,VALID,0,VALID,19.7448,VALID,129,VALID,0,
2013-02-01, 02:01:05,VALID,918.641,VALID,0,VALID,95.8263,VALID,0,VALID,19.7238,VALID,113,VALID,0,
2013-02-01, 02:02:05,VALID,918.631,VALID,0,VALID,95.8721,VALID,0,VALID,19.7238,VALID,120,VALID,0,
2013-02-01, 02:03:05,VALID,918.633,VALID,0,VALID,96.0169,VALID,0,VALID,19.7628,VALID,130,VALID,0,
2013-02-01, 02:04:05,VALID,918.64,VALID,0,VALID,95.9864,VALID,0,VALID,19.7628,VALID,115,VALID,0,
2013-02-01, 02:05:05,VALID,918.626,VALID,0,VALID,95.9331,VALID,0,VALID,19.7823,VALID,127,VALID,0,
2013-02-01, 02:06:05,VALID,918.608,VALID,0,VALID,95.9254,VALID,0,VALID,19.7823,VALID,103,VALID,0,
2013-02-01, 02:07:05,VALID,918.631,VALID,0,VALID,95.9102,VALID,0,VALID,19.7823,VALID,132,VALID,0,
2013-02-01, 02:08:05,VALID,918.606,VALID,0,VALID,95.895,VALID,0,VALID,19.7823,VALID,124,VALID,0,
2013-02-01, 02:09:04,VALID,918.609,VALID,0,VALID,95.8492,VALID,0,VALID,19.7823,VALID,103,VALID,0,
2013-02-01, 02:10:04,VALID,918.589,VALID,0,VALID,95.8797,VALID,0,VALID,19.7823,VALID,117,VALID,0,
2013-02-01, 02:11:04,VALID,918.59,VALID,0,VALID,95.9102,VALID,0,VALID,19.7628,VALID,111,VALID,0,
2013-02-01, 02:12:04,VALID,918.554,VALID,0,VALID,95.9178,VALID,0,VALID,19.7433,VALID,110,VALID,0,
2013-02-01, 02:13:04,VALID,918.56,VALID,0,VALID,95.8263,VALID,0,VALID,19.7238,VALID,99,VALID,0,
2013-02-01, 02:14:04,VALID,918.536,VALID,0,VALID,95.9331,VALID,0,VALID,19.6848,VALID,116,VALID,0,
2013-02-01, 02:15:04,VALID,918.527,VALID,0,VALID,96.0245,VALID,0,VALID,19.7043,VALID,135,VALID,0,
2013-02-01, 02:16:04,VALID,918.495,VALID,0,VALID,96.0322,VALID,0,VALID,19.7043,VALID,121,VALID,0,
2013-02-01, 02:17:04,VALID,918.478,VALID,0,VALID,96.0932,VALID,0,VALID,19.7238,VALID,132,VALID,0,
2013-02-01, 02:18:04,VALID,918.476,VALID,0,VALID,96.0779,VALID,0.107441,VALID,19.7418,VALID,124,VALID,0,
2013-02-01, 02:19:04,VALID,918.485,VALID,0,VALID,96.0627,VALID,0,VALID,19.7628,VALID,121,VALID,0,
2013-02-01, 02:20:04,VALID,918.473,VALID,0,VALID,96.0017,VALID,0,VALID,19.7628,VALID,128,VALID,0,
2013-02-01, 02:21:04,VALID,918.448,VALID,0,VALID,96.0398,VALID,0,VALID,19.7628,VALID,125,VALID,0,
2013-02-01, 02:22:04,VALID,918.469,VALID,0,VALID,96.0932,VALID,0,VALID,19.7628,VALID,111,VALID,0,
2013-02-01, 02:23:04,VALID,918.435,VALID,0,VALID,96.0169,VALID,0,VALID,19.7628,VALID,127,VALID,0,
2013-02-01, 02:24:04,VALID,918.431,VALID,0,VALID,96.1541,VALID,0,VALID,19.7823,VALID,127,VALID,0,
2013-02-01, 02:25:04,VALID,918.448,VALID,0,VALID,96.1236,VALID,0,VALID,19.7418,VALID,127,VALID,0,
2013-02-01, 02:26:04,VALID,918.428,VALID,0,VALID,96.1389,VALID,0.107441,VALID,19.7628,VALID,148,VALID,0,
2013-02-01, 02:27:04,VALID,918.422,VALID,0,VALID,96.1084,VALID,0,VALID,19.7433,VALID,151,VALID,0,
2013-02-01, 02:28:04,VALID,918.402,VALID,0,VALID,96.1846,VALID,0,VALID,19.7823,VALID,179,VALID,0,
2013-02-01, 02:29:04,VALID,918.39,VALID,0,VALID,96.2075,VALID,0,VALID,19.7613,VALID,163,VALID,0,
2013-02-01, 02:30:04,VALID,918.404,VALID,0,VALID,96.2151,VALID,0,VALID,19.7628,VALID,175,VALID,0,
2013-02-01, 02:31:04,VALID,918.38,VALID,0,VALID,96.2228,VALID,0,VALID,19.7628,VALID,175,VALID,0,
2013-02-01, 02:32:04,VALID,918.349,VALID,0,VALID,96.2609,VALID,0,VALID,19.7823,VALID,167,VALID,0,
2013-02-01, 02:33:04,VALID,918.358,VALID,0,VALID,96.2914,VALID,0,VALID,19.8018,VALID,198,VALID,0,
2013-02-01, 02:34:04,VALID,918.315,VALID,0,VALID,96.3447,VALID,0,VALID,19.8018,VALID,183,VALID,0,
2013-02-01, 02:35:04,VALID,918.331,VALID,0,VALID,96.3219,VALID,0,VALID,19.7823,VALID,183,VALID,0,
2013-02-01, 02:36:04,VALID,918.322,VALID,0,VALID,96.3219,VALID,0,VALID,19.7808,VALID,172,VALID,0,
2013-02-01, 02:37:04,VALID,918.309,VALID,0,VALID,96.3066,VALID,0,VALID,19.7628,VALID,186,VALID,0,
2013-02-01, 02:38:04,VALID,918.282,VALID,0,VALID,96.299,VALID,0,VALID,19.7823,VALID,182,VALID,0,
2013-02-01, 02:39:04,VALID,918.274,VALID,0,VALID,96.3447,VALID,0,VALID,19.8018,VALID,212,VALID,0,
2013-02-01, 02:40:04,VALID,918.278,VALID,0,VALID,96.3295,VALID,0,VALID,19.7613,VALID,194,VALID,0,
2013-02-01, 02:41:04,VALID,918.286,VALID,0,VALID,96.3219,VALID,0,VALID,19.7823,VALID,197,VALID,0,
2013-02-01, 02:42:04,VALID,918.291,VALID,0,VALID,96.3142,VALID,0,VALID,19.7823,VALID,197,VALID,0,
2013-02-01, 02:43:04,VALID,918.28,VALID,0,VALID,96.2914,VALID,0,VALID,19.7433,VALID,197,VALID,0,
2013-02-01, 02:44:04,VALID,918.266,VALID,0,VALID,96.299,VALID,0,VALID,19.7433,VALID,197,VALID,0,
2013-02-01, 02:45:04,VALID,918.269,VALID,0,VALID,96.2761,VALID,0,VALID,19.7223,VALID,157,VALID,0,
2013-02-01, 02:46:04,VALID,918.263,VALID,0,VALID,96.2914,VALID,0,VALID,19.7418,VALID,159,VALID,0,
2013-02-01, 02:47:04,VALID,918.245,VALID,0,VALID,96.2837,VALID,0,VALID,19.7433,VALID,159,VALID,0,
2013-02-01, 02:48:04,VALID,918.231,VALID,0,VALID,96.2914,VALID,0,VALID,19.7433,VALID,171,VALID,0,
2013-02-01, 02:49:04,VALID,918.235,VALID,0,VALID,96.2914,VALID,0,VALID,19.7433,VALID,171,VALID,0,
2013-02-01, 02:50:04,VALID,918.221,VALID,0,VALID,96.299,VALID,0,VALID,19.7433,VALID,155,VALID,0,
2013-02-01, 02:51:04,VALID,918.219,VALID,0,VALID,96.2761,VALID,0,VALID,19.7238,VALID,155,VALID,0,
2013-02-01, 02:52:04,VALID,918.219,VALID,0,VALID,96.3219,VALID,0,VALID,19.7628,VALID,155,VALID,0,
2013-02-01, 02:53:04,VALID,918.24,VALID,0,VALID,96.3066,VALID,0,VALID,19.7628,VALID,155,VALID,0,
2013-02-01, 02:54:04,VALID,918.223,VALID,0,VALID,96.2685,VALID,0,VALID,19.7628,VALID,155,VALID,0,
2013-02-01, 02:55:04,VALID,918.252,VALID,0,VALID,96.299,VALID,0,VALID,19.7433,VALID,155,VALID,0,
2013-02-01, 02:56:04,VALID,918.229,VALID,0,VALID,96.2685,VALID,0,VALID,19.7238,VALID,155,VALID,0,
2013-02-01, 02:57:04,VALID,918.219,VALID,0,VALID,96.2761,VALID,0,VALID,19.7043,VALID,155,VALID,0,
2013-02-01, 02:58:04,VALID,918.215,VALID,0,VALID,96.2685,VALID,0,VALID,19.7043,VALID,155,VALID,0,
2013-02-01, 02:59:04,VALID,918.218,VALID,0,VALID,96.2685,VALID,0,VALID,19.7043,VALID,159,VALID,0,
2013-02-01, 03:00:04,VALID,918.212,VALID,0,VALID,96.3066,VALID,0,VALID,19.7238,VALID,192,VALID,0,
2013-02-01, 03:01:04,VALID,918.218,VALID,0,VALID,96.3447,VALID,0,VALID,19.7238,VALID,192,VALID,0,
2013-02-01, 03:02:04,VALID,918.207,VALID,0,VALID,96.3447,VALID,0,VALID,19.7433,VALID,156,VALID,0,
2013-02-01, 03:03:04,VALID,918.222,VALID,0,VALID,96.36,VALID,0,VALID,19.7238,VALID,156,VALID,0,
2013-02-01, 03:04:04,VALID,918.231,VALID,0,VALID,96.36,VALID,0,VALID,19.7238,VALID,157,VALID,0,
2013-02-01, 03:05:04,VALID,918.198,VALID,0,VALID,96.3447,VALID,0,VALID,19.7238,VALID,157,VALID,0,
2013-02-01, 03:06:04,VALID,918.234,VALID,0,VALID,96.3524,VALID,0,VALID,19.7043,VALID,157,VALID,0,
2013-02-01, 03:07:04,VALID,918.219,VALID,0,VALID,96.3752,VALID,0,VALID,19.7628,VALID,157,VALID,0,
2013-02-01, 03:08:04,VALID,918.159,VALID,0,VALID,96.299,VALID,0,VALID,19.6848,VALID,157,VALID,0,
2013-02-01, 03:09:04,VALID,918.168,VALID,0,VALID,96.2075,VALID,0,VALID,19.6053,VALID,157,VALID,0,
2013-02-01, 03:10:04,VALID,918.165,VALID,0,VALID,96.1313,VALID,0,VALID,19.5678,VALID,157,VALID,0,
2013-02-01, 03:11:04,VALID,918.155,VALID,0,VALID,96.1389,VALID,0,VALID,19.4898,VALID,107,VALID,0,
2013-02-01, 03:12:04,VALID,918.148,VALID,0,VALID,96.0627,VALID,0,VALID,19.4313,VALID,107,VALID,0,
2013-02-01, 03:13:04,VALID,918.153,VALID,0,VALID,96.0703,VALID,0,VALID,19.3533,VALID,107,VALID,0,
2013-02-01, 03:14:04,VALID,918.176,VALID,0,VALID,96.0398,VALID,0,VALID,19.2558,VALID,107,VALID,0,
2013-02-01, 03:15:04,VALID,918.156,VALID,0,VALID,96.2609,VALID,0,VALID,19.2153,VALID,107,VALID,0,
2013-02-01, 03:16:04,VALID,918.147,VALID,0,VALID,96.2914,VALID,0,VALID,19.2363,VALID,107,VALID,0,
2013-02-01, 03:17:04,VALID,918.132,VALID,0,VALID,96.3371,VALID,0,VALID,19.2363,VALID,107,VALID,0,
2013-02-01, 03:18:04,VALID,918.144,VALID,0,VALID,96.4515,VALID,0,VALID,19.2948,VALID,110,VALID,0,
2013-02-01, 03:19:04,VALID,918.155,VALID,0,VALID,96.5201,VALID,0,VALID,19.3338,VALID,128,VALID,0,
2013-02-01, 03:20:04,VALID,918.137,VALID,0,VALID,96.6039,VALID,0,VALID,19.4313,VALID,129,VALID,0,
2013-02-01, 03:21:04,VALID,918.133,VALID,0,VALID,96.642,VALID,0,VALID,19.4703,VALID,133,VALID,0,
2013-02-01, 03:22:04,VALID,918.138,VALID,0,VALID,96.6497,VALID,0,VALID,19.4703,VALID,118,VALID,0,
2013-02-01, 03:23:04,VALID,918.148,VALID,0,VALID,96.6268,VALID,0,VALID,19.4508,VALID,105,VALID,0,
2013-02-01, 03:24:04,VALID,918.179,VALID,0,VALID,96.5887,VALID,0,VALID,19.4703,VALID,105,VALID,0,
2013-02-01, 03:25:04,VALID,918.183,VALID,0,VALID,96.5811,VALID,0,VALID,19.4898,VALID,122,VALID,0,
2013-02-01, 03:26:04,VALID,918.181,VALID,0,VALID,96.5963,VALID,0,VALID,19.4913,VALID,127,VALID,0,
2013-02-01, 03:27:04,VALID,918.207,VALID,0,VALID,96.6192,VALID,0,VALID,19.5093,VALID,157,VALID,0,
2013-02-01, 03:28:04,VALID,918.167,VALID,0,VALID,96.5963,VALID,0,VALID,19.4898,VALID,146,VALID,0,
2013-02-01, 03:29:04,VALID,918.173,VALID,0,VALID,96.5963,VALID,0,VALID,19.4913,VALID,146,VALID,0,
2013-02-01, 03:30:04,VALID,918.172,VALID,0,VALID,96.5887,VALID,0,VALID,19.4898,VALID,146,VALID,0,
2013-02-01, 03:31:04,VALID,918.174,VALID,0,VALID,96.5887,VALID,0,VALID,19.4898,VALID,145,VALID,0,
2013-02-01, 03:32:04,VALID,918.155,VALID,0,VALID,96.5963,VALID,0,VALID,19.4703,VALID,165,VALID,0,
2013-02-01, 03:33:04,VALID,918.132,VALID,0,VALID,96.5963,VALID,0,VALID,19.4898,VALID,167,VALID,0,
2013-02-01, 03:34:04,VALID,918.131,VALID,0,VALID,96.6115,VALID,0,VALID,19.5108,VALID,164,VALID,0,
2013-02-01, 03:35:04,VALID,918.142,VALID,0,VALID,96.642,VALID,0,VALID,19.4898,VALID,145,VALID,0,
2013-02-01, 03:36:04,VALID,918.136,VALID,0,VALID,96.6497,VALID,0,VALID,19.4703,VALID,145,VALID,0,
2013-02-01, 03:37:04,VALID,918.126,VALID,0,VALID,96.642,VALID,0,VALID,19.4508,VALID,136,VALID,0,
2013-02-01, 03:38:04,VALID,918.15,VALID,0,VALID,96.6344,VALID,0,VALID,19.4313,VALID,140,VALID,0,
2013-02-01, 03:39:04,VALID,918.135,VALID,0,VALID,96.6192,VALID,0,VALID,19.4523,VALID,127,VALID,0,
2013-02-01, 03:40:04,VALID,918.095,VALID,0,VALID,96.6268,VALID,0,VALID,19.3923,VALID,123,VALID,0,
2013-02-01, 03:41:04,VALID,918.108,VALID,0,VALID,96.6497,VALID,0,VALID,19.4118,VALID,124,VALID,0,
2013-02-01, 03:42:04,VALID,918.117,VALID,0,VALID,96.6802,VALID,0,VALID,19.4718,VALID,127,VALID,0,
2013-02-01, 03:43:04,VALID,918.106,VALID,0,VALID,96.6649,VALID,0,VALID,19.4703,VALID,123,VALID,0,
2013-02-01, 03:44:04,VALID,918.111,VALID,0,VALID,96.6878,VALID,0,VALID,19.4898,VALID,116,VALID,0,
2013-02-01, 03:45:04,VALID,918.105,VALID,0,VALID,96.6725,VALID,0,VALID,19.4913,VALID,113,VALID,0,
2013-02-01, 03:46:04,VALID,918.122,VALID,0,VALID,96.6573,VALID,0,VALID,19.5288,VALID,124,VALID,0,
2013-02-01, 03:47:04,VALID,918.102,VALID,0,VALID,96.6344,VALID,0,VALID,19.5693,VALID,115,VALID,0,
2013-02-01, 03:48:04,VALID,918.125,VALID,0,VALID,96.6344,VALID,0,VALID,19.5693,VALID,132,VALID,0,
2013-02-01, 03:49:04,VALID,918.112,VALID,0,VALID,96.6115,VALID,0,VALID,19.5678,VALID,131,VALID,0,
2013-02-01, 03:50:04,VALID,918.12,VALID,0,VALID,96.6115,VALID,0,VALID,19.5873,VALID,132,VALID,0,
2013-02-01, 03:51:04,VALID,918.12,VALID,0,VALID,96.5811,VALID,0,VALID,19.6083,VALID,129,VALID,0,
2013-02-01, 03:52:04,VALID,918.112,VALID,0,VALID,96.5506,VALID,0,VALID,19.6278,VALID,134,VALID,0,
2013-02-01, 03:53:04,VALID,918.125,VALID,0,VALID,96.5201,VALID,0,VALID,19.6473,VALID,137,VALID,0,
2013-02-01, 03:54:04,VALID,918.149,VALID,0,VALID,96.4667,VALID,0,VALID,19.6458,VALID,124,VALID,0,
2013-02-01, 03:55:04,VALID,918.157,VALID,0,VALID,96.4286,VALID,0,VALID,19.6653,VALID,138,VALID,0,
2013-02-01, 03:56:04,VALID,918.143,VALID,0,VALID,96.3676,VALID,0,VALID,19.6653,VALID,153,VALID,0,
2013-02-01, 03:57:04,VALID,918.144,VALID,0,VALID,96.36,VALID,0,VALID,19.7253,VALID,160,VALID,0,
2013-02-01, 03:58:04,VALID,918.165,VALID,0,VALID,96.3447,VALID,0,VALID,19.7448,VALID,153,VALID,0,
2013-02-01, 03:59:04,VALID,918.168,VALID,0,VALID,96.2837,VALID,0,VALID,19.7238,VALID,135,VALID,0,